Wind_Speed
30 31 31 31 31 31 31 32 32 33 33 33 34 35 35 36 37 38 38 39 40 40 40 41 42 43 44 45 45 46 46 47 48 48 49 49 49 48 48 48 49 50 50
30 31 31 32 32 32 33 33 34 34 35 35 36 36 37 37 38 38 38 39 40 40 40 41 42 43 43 44 44 45 45 46 46 46 45 45 45 45 45 46 46 46 46
30 31 32 32 33 33 34 34 35 35 36 37 37 37 37 37 37 37 37 37 39 39 39 40 41 41 42 42 42 42 42 42 42 41 41 41 41 42 42 42 42 41 41
31 32 33 33 33 34 34 35 35 36 36 36 36 36 35 36 36 36 36 37 37 37 38 38 39 39 39 39 39 38 38 38 38 38 38 39 38 38 38 37 37 37 36
30 31 31 32 32 33 33 34 34 35 35 35 35 35 34 34 35 35 35 35 35 35 35 36 36 36 35 35 36 36 36 36 36 36 36 36 35 34 33 33 33 33 32
28 28 29 30 31 31 32 32 33 33 34 34 34 33 33 33 33 34 33 32 32 33 33 32 32 33 33 33 34 33 33 33 33 33 33 32 31 31 31 31 30 29 28
27 28 28 28 29 29 30 31 31 31 32 32 31 31 31 31 31 31 31 31 31 30 30 30 30 30 31 31 31 31 30 30 30 30 30 29 29 29 28 27 26 25 23
26 27 28 28 29 29 29 29 29 29 29 28 28 28 29 29 29 29 28 28 28 28 28 28 28 28 28 28 28 27 27 27 27 27 27 26 25 24 24 24 23 22 20
24 25 26 26 27 27 27 27 27 26 26 26 26 26 26 26 26 26 25 25 25 25 25 25 25 25 25 25 25 25 25 24 24 24 24 23 23 22 22 21 20 20 19
22 22 23 23 23 23 23 23 23 23 24 24 24 24 24 24 24 23 22 22 22 23 23 22 22 22 22 22 22 23 23 23 23 22 22 21 20 20 20 19 18 18 17
20 21 21 21 21 21 22 22 22 23 23 23 23 23 22 21 20 20 20 20 20 20 20 20 20 20 21 21 21 21 21 21 21 21 20 19 19 18 18 17 17 16 16
19 19 20 20 20 21 20 20 21 21 21 21 20 20 20 19 19 18 18 19 19 19 19 18 19 19 19 19 19 19 19 19 19 19 18 17 17 16 16 16 15 14 15
18 18 19 18 19 19 19 19 19 19 19 19 18 18 17 17 17 17 18 18 17 17 17 17 18 18 18 18 18 18 18 18 18 17 16 16 15 15 14 14 14 13 15
16 17 17 17 17 17 17 17 17 17 16 16 16 16 16 15 15 16 16 16 15 15 15 16 16 16 17 17 16 16 17 17 16 16 15 15 14 14 14 13 13 14 15
14 14 14 15 15 15 15 14 14 13 14 14 14 14 13 13 13 13 13 13 12 13 13 13 14 15 14 15 15 15 16 16 15 14 14 14 14 14 13 13 13 13 14
11 11 12 13 13 13 12 12 12 12 12 12 11 11 11 11 11 11 11 10 11 11 12 12 13 13 14 14 14 15 15 15 14 14 13 13 13 13 13 12 11 12 12
9 10 10 11 11 11 11 11 11 10 10 10 9 9 9 9 9 8 9 9 10 10 11 12 12 13 13 13 14 14 14 14 13 13 12 12 12 12 12 11 11 11 11
8 8 9 9 9 9 9 9 9 9 8 8 7 7 7 7 7 7 8 8 9 10 11 11 12 12 12 13 13 14 13 13 12 12 11 11 11 11 11 11 10 11 11
7 7 8 8 8 8 8 7 7 7 6 6 5 5 6 6 6 7 7 8 9 10 11 11 11 12 12 13 13 13 13 12 12 11 10 10 10 10 10 10 10 10 11
7 7 7 7 7 6 5 5 5 5 5 4 4 4 4 5 6 6 7 8 9 10 10 11 11 12 12 12 12 12 12 11 11 10 10 10 10 9 9 9 10 10 10
8 7 7 6 6 5 4 4 4 4 3 3 3 4 4 5 6 6 7 8 9 9 10 11 11 12 12 12 12 12 11 11 10 10 10 9 9 9 9 9 10 10 11
9 9 8 7 6 5 5 4 4 4 4 4 4 4 5 6 6 7 8 8 9 9 10 11 11 12 12 12 11 11 11 10 10 10 9 9 9 9 9 10 10 11 12
11 11 9 8 8 7 7 6 6 6 6 6 6 6 6 6 7 7 8 9 9 10 11 11 12 12 11 11 11 11 10 10 10 10 10 10 10 10 10 11 11 12 12
13 12 11 10 10 9 9 9 8 8 8 7 7 7 7 7 8 8 9 10 10 11 12 12 12 12 11 11 11 11 10 10 10 10 10 10 11 11 11 12 12 12 13
15 14 13 13 12 11 11 10 10 10 9 9 9 8 8 9 9 9 10 11 11 12 12 12 12 12 12 12 11 11 11 11 11 12 12 12 12 13 13 13 13 14 14
16 14 14 14 13 13 12 12 11 10 10 10 10 9 9 10 10 10 10 11 12 12 12 12 12 12 12 12 12 12 13 13 13 13 13 14 14 14 14 14 15 15 15
Wind_Direction
269 269 271 272 274 275 276 278 279 280 282 283 283 286 285 286 287 287 286 286 286 286 287 287 287 287 287 288 289 289 289 290 290 290 290 290 290 291 291 292 292 292 291
269 270 271 273 274 275 276 278 278 278 281 283 284 285 287 287 287 287 288 287 287 287 287 287 288 288 288 289 290 290 290 291 292 292 292 292 293 294 294 295 296 295 296
270 271 272 273 274 276 277 278 279 280 283 284 285 287 287 287 287 288 288 288 289 289 289 288 289 290 290 291 291 291 292 293 293 294 295 296 297 298 299 299 299 300 301
270 271 272 274 275 276 278 279 280 282 284 285 286 287 288 288 288 288 289 290 289 289 289 289 290 291 291 291 291 292 293 294 295 296 297 299 300 301 302 303 305 305 305
271 271 272 274 275 277 278 279 280 282 284 285 286 287 288 289 287 288 290 290 290 290 291 291 292 292 292 293 293 294 295 296 297 298 299 301 303 305 306 307 308 308 308
272 273 274 275 276 277 278 279 281 283 283 284 286 286 286 288 288 288 289 289 291 292 293 293 294 294 293 295 296 296 297 298 299 300 302 304 305 307 308 309 310 310 311
272 272 274 275 277 279 280 281 282 284 284 284 285 285 286 287 288 287 289 290 292 293 294 294 294 294 296 297 297 299 300 301 302 303 305 306 308 310 311 311 312 314 315
271 272 275 277 279 280 280 280 282 283 284 284 284 284 285 286 287 288 290 292 293 294 294 295 295 296 298 299 301 302 303 304 305 306 307 309 311 313 314 315 318 320 321
270 271 275 278 278 277 277 278 279 281 281 282 282 284 285 287 288 290 292 294 295 296 297 298 299 300 302 304 305 306 308 309 310 310 311 312 314 316 318 320 322 324 326
273 275 277 277 278 278 278 279 281 281 281 282 283 284 285 287 289 292 293 295 297 300 301 302 303 305 308 310 311 312 313 314 315 316 317 318 319 322 324 325 326 328 329
277 278 279 280 280 280 280 281 281 283 284 284 285 286 287 289 290 292 294 296 299 301 302 304 306 309 311 313 314 316 317 318 319 319 320 321 322 325 327 328 329 331 333
278 279 280 280 280 281 282 283 284 284 284 285 286 288 289 291 293 294 295 297 300 302 304 306 309 311 314 316 317 319 320 322 323 324 325 326 326 327 330 331 332 335 338
278 279 280 280 280 281 283 285 286 286 286 287 287 289 291 293 294 295 296 298 301 303 306 310 313 316 318 320 322 323 325 326 326 326 327 329 330 331 333 335 338 341 344
280 279 280 281 282 285 287 289 289 289 288 288 290 290 292 293 295 298 300 302 302 304 308 313 317 319 322 324 325 327 328 329 329 329 330 333 335 337 337 340 343 346 348
282 282 283 284 287 288 288 289 290 292 292 292 292 293 294 296 299 301 304 305 306 310 315 318 321 323 326 327 328 329 330 331 332 332 334 337 340 343 343 343 345 349 352
290 290 291 291 291 290 290 291 292 295 296 297 296 296 298 302 304 306 307 309 313 318 321 324 326 327 328 328 329 331 332 334 336 337 338 340 343 346 348 348 350 353 356
299 297 296 295 295 294 294 295 296 297 298 298 299 301 304 308 309 309 312 315 318 323 326 328 329 329 330 331 333 334 335 338 339 340 342 343 346 349 352 354 357 359 1
309 306 304 302 300 298 299 300 299 299 299 299 302 306 312 317 318 318 320 322 324 327 329 330 331 332 333 334 335 336 338 341 343 344 346 348 351 355 358 1 3 4 6
324 319 316 312 309 307 306 306 308 308 306 306 310 318 327 332 332 332 333 333 333 333 334 336 337 339 340 340 341 343 345 346 347 348 350 354 357 0 4 9 12 14 15
345 340 336 329 323 319 316 318 322 324 322 323 326 335 342 343 342 341 341 341 340 341 342 343 345 346 347 348 349 350 352 353 355 357 360 3 5 8 13 20 24 24 24
8 5 359 355 356 358 357 353 351 351 353 358 0 1 359 355 353 352 350 350 349 349 351 352 354 354 355 356 358 359 1 3 6 9 12 15 20 24 30 34 36 35 33
27 26 25 26 28 30 30 31 33 34 36 34 27 22 15 10 6 4 2 0 359 360 1 2 2 3 3 4 6 8 11 14 17 20 24 28 33 38 42 44 45 43 41
41 41 41 42 44 45 47 49 52 51 49 46 41 35 30 26 24 20 16 13 13 12 10 8 8 9 11 12 14 17 21 25 29 33 37 40 45 50 51 52 52 50 49
47 46 46 47 48 51 54 56 57 55 53 50 45 41 39 35 31 27 24 22 20 18 16 15 16 18 20 22 24 28 32 37 41 45 48 52 57 60 60 59 59 58 57
49 49 49 49 50 52 53 55 56 56 54 51 49 46 43 41 38 33 29 27 25 24 24 24 25 27 29 32 36 39 44 48 52 56 59 62 64 65 66 66 65 65 63
48 48 48 49 51 52 53 56 57 56 53 50 47 46 46 42 37 33 31 29 28 29 30 32 34 37 40 42 46 50 54 57 60 63 65 67 68 69 70 70 69 67 66
Height
5781 5781 5781 5781 5781 5781 5781 5781 5780 5780 5779 5778 5777 5776 5774 5772 5770 5768 5766 5763 5761 5758 5755 5753 5750 5746 5743 5740 5736 5733 5729 5725 5720 5715 5710 5705 5700 5695 5689 5684 5678 5672 5666
5773 5773 5773 5773 5773 5773 5773 5772 5772 5771 5770 5768 5767 5766 5764 5762 5760 5757 5755 5753 5750 5747 5744 5741 5738 5735 5731 5728 5724 5720 5717 5712 5708 5703 5698 5693 5688 5682 5677 5671 5665 5659 5653
5765 5765 5765 5765 5765 5764 5764 5763 5762 5761 5760 5759 5757 5756 5754 5752 5749 5747 5745 5742 5739 5736 5733 5730 5727 5724 5720 5717 5713 5709 5705 5701 5696 5692 5687 5682 5676 5671 5666 5660 5654 5649 5643
5757 5757 5757 5756 5756 5756 5755 5754 5753 5752 5751 5749 5748 5746 5744 5742 5739 5737 5734 5732 5729 5726 5723 5720 5716 5713 5710 5706 5702 5699 5695 5690 5686 5681 5677 5672 5667 5661 5656 5650 5645 5639 5634
5749 5749 5748 5748 5748 5747 5746 5745 5744 5743 5742 5740 5738 5736 5734 5732 5730 5727 5725 5722 5719 5716 5713 5710 5706 5703 5699 5696 5693 5689 5685 5681 5676 5672 5667 5663 5658 5653 5648 5642 5637 5632 5627
5741 5741 5740 5740 5739 5739 5738 5737 5736 5734 5733 5731 5729 5727 5725 5723 5721 5718 5716 5713 5710 5707 5704 5700 5697 5694 5690 5687 5684 5680 5676 5672 5668 5664 5659 5655 5650 5645 5641 5636 5631 5626 5621
5734 5733 5732 5732 5731 5731 5730 5729 5727 5726 5724 5722 5720 5719 5717 5714 5712 5710 5707 5705 5702 5698 5695 5692 5689 5686 5682 5679 5676 5672 5668 5664 5661 5657 5653 5648 5644 5639 5634 5630 5625 5620 5616
5726 5726 5725 5725 5724 5723 5722 5721 5719 5718 5716 5714 5712 5710 5708 5706 5704 5702 5699 5696 5694 5691 5688 5684 5681 5678 5675 5671 5668 5665 5661 5658 5654 5650 5646 5642 5637 5633 5629 5625 5620 5616 5612
5719 5719 5718 5718 5717 5716 5714 5713 5712 5710 5708 5706 5705 5703 5701 5699 5697 5694 5692 5689 5687 5684 5681 5678 5675 5671 5668 5665 5662 5658 5655 5651 5647 5644 5640 5636 5632 5628 5624 5620 5616 5612 5608
5713 5712 5711 5711 5710 5708 5707 5706 5705 5703 5701 5700 5698 5696 5694 5692 5690 5688 5685 5683 5680 5678 5675 5672 5669 5666 5663 5659 5656 5653 5649 5646 5642 5638 5635 5631 5628 5624 5620 5617 5613 5610 5606
5707 5706 5705 5704 5703 5702 5701 5700 5698 5697 5695 5693 5691 5689 5688 5686 5684 5682 5679 5677 5675 5672 5670 5667 5664 5661 5658 5655 5652 5649 5645 5641 5638 5634 5631 5627 5624 5621 5617 5614 5610 5607 5604
5701 5700 5699 5698 5697 5696 5694 5693 5692 5690 5688 5687 5685 5683 5682 5680 5678 5676 5674 5672 5670 5668 5665 5663 5660 5657 5654 5651 5648 5645 5641 5638 5635 5631 5628 5625 5621 5618 5615 5611 5608 5605 5602
5695 5694 5693 5692 5691 5690 5688 5687 5686 5684 5683 5681 5679 5678 5676 5675 5673 5671 5669 5667 5665 5663 5661 5659 5656 5654 5651 5648 5645 5641 5638 5635 5632 5628 5625 5622 5619 5616 5612 5609 5606 5603 5600
5690 5689 5688 5687 5686 5684 5683 5682 5680 5679 5677 5676 5675 5673 5672 5670 5669 5667 5665 5664 5662 5660 5658 5655 5653 5650 5648 5645 5642 5639 5636 5632 5629 5626 5623 5620 5617 5614 5611 5608 5605 5602 5599
5685 5684 5683 5682 5681 5680 5678 5677 5675 5674 5673 5672 5671 5669 5668 5667 5665 5664 5662 5660 5659 5657 5655 5652 5650 5648 5645 5642 5639 5636 5633 5630 5627 5623 5620 5618 5615 5612 5609 5606 5604 5601 5598
5681 5680 5679 5678 5676 5675 5674 5673 5672 5671 5669 5668 5667 5666 5665 5664 5662 5661 5659 5658 5656 5654 5652 5650 5648 5645 5642 5640 5637 5634 5631 5628 5624 5621 5619 5616 5613 5610 5608 5605 5603 5601 5598
5678 5677 5675 5674 5673 5672 5671 5670 5669 5668 5667 5666 5665 5664 5662 5661 5660 5659 5657 5656 5654 5652 5650 5648 5646 5643 5640 5638 5635 5632 5629 5626 5623 5620 5617 5615 5612 5610 5607 5605 5602 5600 5598
5675 5674 5673 5671 5670 5669 5668 5667 5666 5665 5665 5664 5663 5662 5660 5659 5658 5657 5656 5654 5652 5650 5648 5646 5644 5641 5639 5636 5633 5630 5627 5624 5621 5619 5616 5614 5611 5609 5607 5604 5602 5600 5598
5673 5672 5671 5669 5668 5667 5666 5665 5664 5663 5663 5662 5661 5660 5659 5658 5657 5656 5654 5653 5651 5649 5647 5644 5642 5639 5637 5634 5631 5628 5625 5623 5620 5618 5615 5613 5611 5609 5606 5604 5602 5600 5598
5672 5670 5669 5667 5666 5665 5664 5664 5663 5662 5661 5661 5660 5659 5658 5657 5656 5655 5653 5652 5650 5648 5646 5643 5641 5638 5636 5633 5630 5627 5624 5622 5619 5617 5615 5613 5611 5609 5607 5605 5603 5601 5599
5671 5669 5668 5666 5665 5664 5664 5663 5662 5661 5661 5660 5660 5659 5658 5657 5656 5654 5653 5651 5649 5647 5645 5642 5640 5637 5635 5632 5629 5626 5624 5621 5619 5617 5615 5613 5611 5609 5608 5606 5604 5603 5601
5671 5670 5668 5667 5666 5665 5664 5663 5662 5662 5661 5661 5660 5659 5658 5657 5656 5654 5653 5651 5649 5647 5644 5642 5639 5637 5634 5631 5629 5626 5624 5622 5620 5618 5616 5614 5612 5611 5609 5607 5606 5605 5603
5673 5671 5670 5669 5667 5666 5665 5664 5663 5663 5662 5661 5660 5660 5659 5658 5656 5655 5653 5651 5649 5647 5644 5642 5639 5637 5634 5632 5629 5627 5625 5623 5621 5619 5617 5615 5614 5612 5611 5610 5608 5607 5605
5675 5674 5673 5671 5669 5668 5667 5666 5665 5664 5663 5663 5662 5661 5660 5659 5657 5656 5654 5652 5650 5647 5645 5642 5640 5637 5635 5633 5630 5628 5626 5624 5622 5620 5619 5617 5616 5615 5613 5612 5611 5610 5608
5679 5677 5675 5674 5672 5670 5669 5668 5667 5666 5665 5664 5663 5662 5661 5660 5658 5657 5655 5653 5651 5648 5646 5643 5641 5639 5636 5634 5632 5630 5628 5626 5624 5623 5621 5620 5619 5618 5617 5615 5614 5613 5612
5682 5680 5679 5677 5675 5673 5672 5671 5670 5669 5668 5667 5666 5664 5663 5662 5660 5658 5656 5654 5652 5650 5648 5645 5643 5641 5638 5636 5634 5632 5631 5629 5628 5626 5625 5624 5623 5621 5620 5619 5618 5617 5616